Regional Weather Roundup
Issued by NWS

Home | Current Version | Previous Version | Graphics & Text | Print | Product List | Glossary On
Versions: 1 2 3 4 5 6 7 8 9 10 11 12 13 14 15 16 17 18 19 20 21 22 23 24 25 26 27 28 29 30 31 32 33 34 35 36 37 38 39 40 41 42 43 44 45 46 47 48 49 50
000
ASUS43 KBIS 281302
RWRND

NORTH DAKOTA REGIONAL WEATHER ROUNDUP
NATIONAL WEATHER SERVICE BISMARCK ND
800 AM CDT FRI APR 28 2017

NOTE: "FAIR" INDICATES FEW OR NO CLOUDS BELOW 12,000 FEET WITH NO
SIGNIFICANT WEATHER AND/OR OBSTRUCTIONS TO VISIBILITY.


NDZ001>003-009>011-017-281400-
NORTHWEST NORTH DAKOTA

CITY           SKY/WX    TMP DP  RH WIND       PRES   REMARKS
WILLISTON      FAIR      33  26  75 NE5       29.99R
MINOT          FAIR      31  26  82 CALM      29.98R
MINOT AFB      SUNNY     32  26  78 N3        29.98R
$$

NDZ018>021-031>035-040>046-281400-
SOUTHWEST NORTH DAKOTA

CITY           SKY/WX    TMP DP  RH WIND       PRES   REMARKS
BISMARCK       FAIR      32  28  85 CALM      29.98R
DICKINSON      FAIR      29  23  78 E6        29.93R
GARRISON         N/A     29  25  85 N6        29.97R
HETTINGER ARPT CLOUDY    31  26  82 NE9       29.94R
$$

NDZ004>008-012>016-024-026-027-054-281400-
NORTHEAST NORTH DAKOTA

CITY           SKY/WX    TMP DP  RH WIND       PRES   REMARKS
GRAND FORKS    SUNNY     36  29  75 NW8       29.94R
GRND FRKS AFB  SUNNY     35  27  75 NW8       29.94R
DEVILS LAKE    FAIR      33  26  75 N10       29.96R
$$

NDZ022-023-025-028>030-036>039-047>053-281400-
SOUTHEAST NORTH DAKOTA

CITY           SKY/WX    TMP DP  RH WIND       PRES   REMARKS
FARGO          SUNNY     33  29  85 N9        29.93R
JAMESTOWN      FAIR      32  28  85 N8        29.94R
$$




USA.gov is the U.S. government's official web portal to all federal, state and local government web resources and services.